DateTimeUTC,F1_A11,F1_S11,BsB_S11,BsG_S11,BsR_S11,BbsB_S11,BbsG_S11,BbsR_S11,BaB_A11,BaG_A11,BaR_A11,Tu_S11,T_S11,Uu_S11,U_S11,P_S11,T1_A11
2021-10-18T12:00:00Z,00000200,21000000,,,,,,,-000.06,0000.08,-000.11,17.2,24.1,,00.0,0672.1,30.9
2021-10-18T12:01:00Z,00000200,21000000,,,,,,,-000.17,0000.42,0000.33,17.1,24.1,,00.0,0672.1,30.9
2021-10-18T12:02:00Z,00000200,21000000,,,,,,,0000.39,-000.16,0000.01,17.1,24.1,,00.0,0672.1,30.9
2021-10-18T12:03:00Z,00000200,61000000,,,,,,,0000.75,0000.80,0000.51,17.1,24.1,,00.0,0672.1,31.0
2021-10-18T12:04:00Z,00000200,41000000,0002.98,0001.85,0000.80,0000.39,0000.06,-000.17,0001.36,0001.44,0001.13,17.3,23.9,,00.0,0673.1,31.0
2021-10-18T12:05:00Z,00000200,01000000,0003.81,0002.57,0001.32,0000.69,0000.05,0000.15,0001.84,0001.46,0001.02,17.4,23.8,,00.0,0673.2,31.0
2021-10-18T12:06:00Z,00000200,01000000,0003.11,0002.40,0001.50,0000.65,0000.55,0000.06,0001.53,0001.53,0001.20,17.4,23.9,,00.0,0673.2,31.0
2021-10-18T12:07:00Z,00000200,01000000,0003.25,0002.31,0001.52,0000.36,0000.37,0000.16,0001.62,0001.26,0001.24,17.5,23.9,00.0,00.0,0673.2,31.0
2021-10-18T12:08:00Z,00000200,01000000,0002.42,0002.43,0001.67,0000.39,0000.41,0000.30,0000.90,0001.28,0000.38,17.5,23.9,00.1,00.1,0673.2,31.0
2021-10-18T12:09:00Z,00000200,01000000,0002.99,0002.47,0001.47,0000.27,0000.17,0000.27,0001.23,0000.83,0000.32,17.6,23.9,00.2,00.1,0673.2,31.0
2021-10-18T12:10:00Z,00000200,01000000,0002.79,0002.48,0001.61,0000.35,0000.28,0000.22,0001.31,0000.51,0000.72,17.6,23.9,00.2,00.2,0673.2,31.0
2021-10-18T12:11:00Z,00000200,01000000,0004.84,0003.25,0001.99,0000.87,0000.65,0000.22,0013.60,0012.78,0010.23,17.5,23.9,00.3,00.2,0673.2,31.0
2021-10-18T12:12:00Z,00000200,01000000,0005.99,0004.27,0003.15,0000.92,0000.99,0000.23,0040.94,0037.77,0029.53,17.5,23.9,00.3,00.2,0673.2,31.0
2021-10-18T12:13:00Z,00000200,01000000,0017.91,0012.73,0008.17,0003.50,0002.97,0002.31,0196.90,0179.80,0140.71,17.4,23.8,00.4,00.3,0673.3,30.9
2021-10-18T12:14:00Z,00000200,01000000,0036.05,0026.99,0017.13,0007.75,0006.55,0004.29,0496.23,0455.85,0359.02,17.4,23.8,00.5,00.3,0673.3,30.9
2021-10-18T12:15:00Z,00000200,01000000,0013.12,0008.95,0005.35,0002.20,0001.93,0001.03,0167.64,0155.88,0123.85,17.3,23.8,00.4,00.3,0673.3,30.9
2021-10-18T12:16:00Z,00000200,01000000,0003.07,0002.87,0001.55,0000.50,0000.33,-000.03,0008.77,0007.52,0006.14,17.3,23.8,00.5,00.4,0673.3,30.9
2021-10-18T12:17:00Z,00000200,01000000,0003.52,0002.26,0001.66,0000.16,0000.38,-000.07,0003.04,0002.86,0002.41,17.4,23.7,00.4,00.3,0673.4,30.9
2021-10-18T12:18:00Z,00000200,01000000,0003.03,0002.32,0001.77,0000.95,0000.37,0000.15,0002.05,0002.01,0001.28,17.4,23.8,00.5,00.3,0673.4,31.0
2021-10-18T12:19:00Z,00000200,01000000,0002.46,0002.56,0001.67,0000.11,0000.31,0000.22,0001.51,0001.06,0001.29,17.5,23.8,00.5,00.3,0673.4,31.0
2021-10-18T12:20:00Z,00000200,01000000,0002.64,0002.64,0001.39,0000.34,0000.61,0000.25,0001.54,0001.66,0001.20,17.6,23.8,00.4,00.3,0673.5,31.0
2021-10-18T12:21:00Z,00000200,01000000,0002.65,0002.38,0001.79,0000.31,0000.61,0000.34,0001.66,0001.33,0000.86,17.6,23.9,00.3,00.2,0673.5,31.0
2021-10-18T12:22:00Z,00000200,01000000,0002.95,0002.53,0001.28,0000.37,0000.49,0000.24,0000.86,0001.05,0000.77,17.7,23.9,00.3,00.2,0673.5,31.0
2021-10-18T12:23:00Z,00000200,01000000,0002.64,0002.38,0001.10,-000.08,0000.19,0000.20,0001.35,0001.14,0000.64,17.8,24.0,00.2,00.1,0673.5,31.0
2021-10-18T12:24:00Z,00000200,01000000,0005.46,0003.89,0002.51,0001.02,0000.74,0000.48,0023.62,0021.56,0017.04,17.8,24.0,00.2,00.1,0673.5,31.0
2021-10-18T12:25:00Z,00000200,01000000,0002.54,0002.32,0001.97,0000.74,-000.08,0000.08,0003.02,0002.87,0002.32,17.7,24.0,00.1,00.1,0673.5,31.0
2021-10-18T12:26:00Z,00000200,01000000,0002.79,0002.42,0001.50,0000.41,0000.31,-000.12,0000.59,0000.27,0000.51,17.7,24.0,00.0,00.0,0673.5,31.0
2021-10-18T12:27:00Z,00000200,01000000,0003.19,0002.40,0001.50,0000.04,0000.20,0000.04,0000.69,0000.72,0000.90,17.6,23.9,00.0,00.0,0673.5,31.0
2021-10-18T12:28:00Z,00000200,01000000,0003.46,0002.91,0001.54,0000.60,0000.36,0000.03,0001.04,0000.92,0000.24,17.6,23.9,00.0,00.0,0673.6,31.0
2021-10-18T12:29:00Z,00000200,01000000,0003.59,0003.13,0001.92,0000.22,0000.40,0000.15,0001.48,0001.62,0000.92,17.6,23.9,00.0,00.0,0673.6,31.0
2021-10-18T12:30:00Z,00000200,01000000,0004.64,0002.89,0002.20,0000.49,0000.34,0000.28,0001.82,0001.21,0001.25,17.5,23.8,00.0,00.0,0673.6,30.9
2021-10-18T12:31:00Z,00000200,01000000,0003.15,0003.04,0002.20,-000.04,0000.44,0000.34,0001.36,0001.39,0001.14,17.5,23.8,00.1,00.1,0673.6,30.9
2021-10-18T12:32:00Z,00000200,01000000,0004.07,0003.21,0001.88,0000.72,0000.29,0000.56,0001.61,0001.47,0000.80,17.6,23.8,00.1,00.1,0673.6,31.0
2021-10-18T12:33:00Z,00000200,01000000,0004.04,0003.31,0001.96,0000.77,0000.38,0000.05,0001.28,0001.46,0000.97,17.6,23.8,00.2,00.1,0673.6,31.0
2021-10-18T12:34:00Z,00000200,01000000,0003.34,0003.19,0002.08,0000.59,0000.46,0000.53,0001.45,0001.09,0001.41,17.7,23.9,00.2,00.1,0673.6,31.0
2021-10-18T12:35:00Z,00000200,01000000,0010.80,0008.75,0005.47,0002.14,0001.58,0001.23,0088.59,0080.77,0063.24,17.7,23.9,00.2,00.1,0673.7,31.0
2021-10-18T12:36:00Z,00000200,01000000,0013.34,0010.05,0006.29,0002.61,0001.91,0001.32,0136.93,0127.02,0100.69,17.8,24.0,00.1,00.1,0673.7,31.0
2021-10-18T12:37:00Z,00000200,01000000,0009.46,0007.00,0004.42,0001.67,0001.48,0001.20,0080.72,0074.48,0059.73,17.8,24.0,00.1,00.0,0673.7,31.0
2021-10-18T12:38:00Z,00000200,01000000,0004.25,0003.67,0002.00,0000.46,0000.56,0000.30,0009.57,0008.80,0006.89,17.8,24.0,00.1,00.1,0673.7,31.0
2021-10-18T12:39:00Z,00000200,01000000,0003.94,0003.69,0002.07,0000.98,0000.86,0000.26,0011.34,0010.35,0008.18,17.8,24.0,00.2,00.1,0673.7,31.0
2021-10-18T12:40:00Z,00000200,01000000,0012.86,0009.70,0006.26,0002.57,0002.17,0001.66,0123.64,0113.43,0089.14,17.8,24.0,00.1,00.1,0673.8,31.0
2021-10-18T12:41:00Z,00000200,01000000,0009.47,0007.70,0004.72,0001.84,0001.52,0001.21,0096.48,0089.49,0071.28,17.7,23.9,00.1,00.1,0673.8,31.0
2021-10-18T12:42:00Z,00000200,01000000,0009.01,0006.15,0003.93,0001.00,0000.98,0000.72,0071.54,0065.54,0051.87,17.7,23.9,00.0,00.0,0673.9,31.0
2021-10-18T12:43:00Z,00000200,01000000,0008.84,0006.63,0003.95,0001.88,0001.48,0000.87,0080.12,0073.75,0057.97,17.6,23.9,00.1,00.0,0673.9,30.9
2021-10-18T12:44:00Z,00000200,01000000,0007.50,0005.32,0003.42,0001.80,0000.67,0000.71,0055.87,0050.92,0040.88,17.6,23.8,00.1,00.0,0673.9,30.9
2021-10-18T12:45:00Z,00000200,01000000,0007.70,0006.74,0003.88,0001.17,0000.95,0000.53,0062.44,0057.42,0045.38,17.5,23.8,00.0,00.0,0673.9,30.9
2021-10-18T12:46:00Z,00000200,01000000,0009.56,0006.10,0003.77,0001.11,0001.12,0000.89,0065.52,0060.63,0047.95,17.5,23.8,00.0,00.0,0673.9,30.9
2021-10-18T12:47:00Z,00000200,01000000,0010.69,0007.49,0004.66,0002.01,0001.39,0001.01,0087.23,0080.75,0064.07,17.5,23.8,00.1,00.1,0674.0,30.9
2021-10-18T12:48:00Z,00000200,01000000,0010.06,0007.92,0005.19,0001.93,0001.48,0001.15,0090.44,0083.17,0066.13,17.6,23.8,00.2,00.1,0674.0,30.9
2021-10-18T12:49:00Z,00000200,01000000,0012.87,0008.97,0005.86,0002.30,0001.55,0001.43,0113.27,0104.31,0082.91,17.7,23.8,00.2,00.1,0674.0,31.0
2021-10-18T12:50:00Z,00000200,01000000,0012.71,0010.30,0006.32,0002.36,0002.22,0001.44,0132.28,0121.89,0096.41,17.8,23.9,00.1,00.1,0674.0,31.0
2021-10-18T12:51:00Z,00000200,01000000,0024.06,0018.34,0010.81,0005.00,0004.09,0002.91,0257.25,0236.20,0187.75,17.8,23.9,00.2,00.1,0674.1,31.0
2021-10-18T12:52:00Z,00000200,01000000,0039.13,0029.38,0019.44,0007.71,0006.65,0004.77,0455.41,0420.84,0334.94,17.8,24.0,00.1,00.1,0674.1,31.0
2021-10-18T12:53:00Z,00000200,01000000,0021.58,0015.30,0009.77,0003.55,0003.13,0002.28,0241.83,0224.99,0181.64,17.8,23.9,00.2,00.1,0674.1,31.0
2021-10-18T12:54:00Z,00000200,01000000,0010.33,0007.63,0004.72,0001.97,0001.50,0001.22,0089.05,0082.78,0066.43,17.8,23.9,00.1,00.1,0674.1,31.0
2021-10-18T12:55:00Z,00000200,01000000,0004.99,0003.74,0002.37,0001.48,0000.79,-000.01,0012.99,0011.83,0009.22,17.7,23.9,00.2,00.1,0674.1,30.9
2021-10-18T12:56:00Z,00000200,01000000,0005.62,0004.43,0002.46,0000.63,0000.78,0000.13,0018.02,0017.04,0013.48,17.7,23.9,00.3,00.2,0674.1,30.9
2021-10-18T12:57:00Z,00000200,41000000,,,,,,,0012.56,0011.19,0009.01,17.7,23.9,,00.0,0674.1,30.9
2021-10-18T12:58:00Z,00000200,61000000,,,,,,,0002.67,0002.22,0001.96,17.3,24.0,,00.0,0673.1,30.9
2021-10-18T12:59:00Z,00000200,21000000,,,,,,,0001.60,0002.00,0001.58,17.3,24.1,,00.0,0673.1,30.9
